{"data":{"norad_id":57127,"intl_designator":"2023-090AC","name":"STARLINK-6165","alt_names":[],"object_type":"PAYLOAD","status":"ACTIVE","operator":null,"country":"US","launch_date":"2023-06-23","launch_site_code":"AFETR","launch_vehicle":null,"mission":null,"orbit_class":"UNKNOWN","rcs_meters":null,"size_class":null,"mass_kg":null,"dimensions":null,"purposes":["comms"],"wikipedia_slug":null,"has_3d_model":false,"image_url":null,"decayed_at":null,"tle_current":{"epoch":"2026-05-25T04:27:12.144672Z","epoch_age_seconds":52973,"freshness":"FRESH","line1":"1 57127U 23090AC  26145.18555723  .00001123  00000+0  50329-4 0  9999","line2":"2 57127  43.0024 209.3469 0001596 274.6337  85.4332 15.27584860161844","mean_motion":15.2758486,"eccentricity":0.0001596,"inclination_deg":43.0024,"raan_deg":209.3469,"arg_perigee_deg":274.6337,"mean_anomaly_deg":85.4332,"bstar":5.0329e-5,"rev_number":16184,"period_min":94.266448804684,"perigee_km":481.93950051152,"apogee_km":484.1295864682,"semimajor_km":6861.1715434899,"source":"CELESTRAK","updated_at":"2026-05-25T13:38:18.244621Z"}}}